[[{"header":{"parameterUnit":"m.s-1","parameterCategory":1,"la1":30.2991,"la2":30.254,"lo1":-89.0895,"lo2":-89.0444,"dy":0.0017,"dx":0.0017,"nx":28,"ny":28,"refTime":"2023-08-11T03:00:00:Z","depth":0,"parameterNumber":2,"parameterNumberName":"U-component_of_WINDS"},"data":[0,0,0,0,0,0,0,0,0,0,0,0,0,0,0,0,0,0,0,0,0,0,0,0,0,0,0,0,0,0,0,0,0,0,0,0,0,0,0,0,0,0,0,0,0,0,0,0,0,0,0,0,0,0,0,0,0,0,1.7405,1.7406,0,1.7516,1.7518,1.7519,1.7471,1.7468,1.7465,1.7463,1.7584,1.759,1.7596,0,0,0,0,0,0,0,0,0,0,0,0,0,1.7157,1.7162,1.7405,1.7406,1.7407,1.7516,1.7518,1.7519,1.7471,1.7468,1.7464,1.7461,1.7583,1.7589,1.7596,0,0,0,0,0,0,0,0,0,0,0,0,0,1.7267,1.7164,1.7404,1.7396,1.7397,1.7516,1.7518,1.752,1.7472,1.7468,1.7464,1.746,1.758,1.7589,1.7597,1.7733,0,0,1.7624,1.7628,0,0,0,0,0,0,0,0,1.7261,1.7276,1.7396,1.7397,1.7398,1.7475,1.7475,1.7592,1.7473,1.7444,1.7462,1.7458,1.7552,1.7563,1.7593,1.7739,1.7744,1.7625,1.763,1.7634,1.7636,0,0,0,0,0,0,0,1.7253,1.7271,1.7449,1.7398,1.7399,1.739,1.7401,1.7497,1.752,1.7446,1.7442,1.7456,1.7552,1.7585,1.7595,1.7746,1.7624,1.7632,1.7638,1.7641,1.8012,1.8016,0,0,0,0,0,0,1.7244,1.7265,1.7446,1.7452,1.7317,1.7397,1.741,1.7455,1.7518,1.7524,1.7459,1.7453,1.7572,1.7585,1.76,1.7764,1.7634,1.7642,1.7647,1.8007,1.8013,1.8018,0,0,0,0,0,0,1.7239,1.7261,1.7441,1.7358,1.738,1.7406,1.7457,1.7459,1.7492,1.7529,1.7533,1.7488,1.7569,1.7587,1.77,1.7768,1.7646,1.7654,1.8002,1.8009,1.8015,1.8094,0,0,0,0,0,0,1.7232,1.7259,1.7309,1.7359,1.7384,1.7538,1.7461,1.7464,1.7506,1.7499,1.7557,1.7563,1.7567,1.7688,1.7709,1.7778,1.766,1.7996,1.8005,1.8013,1.8086,1.8103,1.8118,0,0,0,0,0,1.7224,1.7329,1.7312,1.7334,1.7447,1.7542,1.7557,1.7557,1.7512,1.7564,1.7587,1.7561,1.7757,1.77,1.7723,1.7796,1.7991,1.8002,1.8012,1.8079,1.81,1.8117,0,0,0,0,0,0,1.7289,1.7335,1.7317,1.7441,1.7487,1.7533,1.7599,1.7579,1.7642,1.7633,1.7634,1.7647,1.7765,1.7791,1.7727,1.7932,1.7868,1.7883,1.791,1.793,1.7946,1.7938,1.7668,0,0,0,0,0,1.7317,1.7387,1.7425,1.753,1.7554,1.7573,1.7614,1.761,1.766,1.768,1.7712,1.7763,1.7836,1.7884,1.7954,1.8089,1.8102,1.8151,1.8167,1.818,1.8194,1.8269,1.8292,1.8052,1.8052,1.8052,0,0,1.7377,1.7411,1.7455,1.7544,1.758,1.7655,1.759,1.7672,1.7729,1.7693,1.7802,1.7827,1.7884,1.801,1.8066,1.8036,1.8263,1.8193,1.8203,1.821,1.8282,1.8305,1.8325,1.8059,1.8058,1.8056,0,0,1.7524,1.7556,1.7648,1.7685,1.7739,1.7751,1.7773,1.7822,1.7837,1.7945,1.792,1.7989,1.8115,1.8157,1.8195,1.836,1.8339,1.8382,1.8467,1.854,1.8559,1.8576,1.8637,1.8658,1.8396,1.8396,1.8396,0,1.7593,1.7703,1.7698,1.7783,1.7824,1.7793,1.7888,1.7924,1.8,1.803,1.7993,1.8151,1.8187,1.8322,1.8363,1.8394,1.8421,1.8376,1.8556,1.8573,1.8589,1.8647,1.867,1.8401,1.8401,1.84,1.84,0,1.7785,1.7862,1.793,1.8002,1.805,1.814,1.8151,1.8202,1.8194,1.821,1.8323,1.8365,1.8443,1.8474,1.8468,1.861,1.8589,1.8555,1.8491,1.8617,1.8672,1.8694,1.8408,1.8407,1.8405,1.8404,0,0,1.7977,1.8044,1.807,1.8102,1.816,1.8221,1.8311,1.8384,1.8428,1.8482,1.8558,1.8665,1.8634,1.8677,1.8676,1.874,1.887,1.8698,1.87,1.873,1.9031,1.9058,1.9084,1.8856,1.886,1.8863,1.9027,0,1.813,1.8284,1.8283,1.8426,1.8499,1.8471,1.8549,1.8594,1.8612,1.8679,1.8699,1.8776,1.8727,1.8753,1.8816,1.8841,1.8931,1.8829,1.893,1.8934,1.8918,1.9112,1.914,1.9292,1.9048,1.9052,1.9054,0,1.8329,1.8387,1.8537,1.8586,1.8616,1.8686,1.8755,1.8817,1.8869,1.8878,1.8926,1.8916,1.9009,1.8941,1.9071,1.9002,1.9043,1.9062,1.9068,1.9079,1.9003,1.913,1.9341,1.9364,1.9088,1.9085,1.9083,0,1.8457,1.8572,1.8677,1.8706,1.8764,1.8815,1.8842,1.8889,1.8935,1.8995,1.9025,1.9097,1.9137,1.9193,1.9203,1.9152,1.9335,1.9267,1.9347,1.9347,1.9388,1.9386,1.9611,1.9412,1.9412,1.9411,1.9411,0,1.8629,1.8722,1.8735,1.88,1.8905,1.8904,1.9008,1.9032,1.9075,1.9146,1.9126,1.9194,1.9201,1.9272,1.928,1.9388,1.9406,1.9418,1.9419,1.9421,1.942,1.9449,1.944,1.9417,1.9416,1.9415,1.9414,0,1.8789,1.8801,1.8914,1.896,1.8974,1.9049,1.909,1.9153,1.9169,1.9259,1.928,1.9306,1.9388,1.9403,1.95,1.9506,1.9636,1.9625,1.9618,1.9617,1.9697,1.969,1.995,1.9985,1.9762,1.9764,1.9766,0,1.8899,1.8969,1.9023,1.9068,1.9097,1.917,1.9216,1.9219,1.9267,1.9333,1.9389,1.9468,1.9532,1.9665,1.9694,1.9769,1.9762,1.9848,1.9773,1.9773,1.9766,1.9762,1.977,1.9863,1.9865,1.9867,1.9869,0,1.9093,1.9095,1.916,1.9229,1.9283,1.9337,1.9389,1.9427,1.9437,1.9494,1.9576,1.9626,1.9724,1.9805,1.9879,1.991,1.9893,1.9892,1.9915,1.9918,1.9911,1.9918,1.9659,1.9886,1.9884,1.9883,1.9882,1.9881,1.9232,1.9295,1.9342,1.9416,1.9455,1.9504,1.9566,1.9589,1.9657,1.9736,1.9734,1.9826,1.9878,1.9976,2.0011,2.0085,2.0058,2.009,2.0099,2.0107,2.0116,1.9897,2.0098,2.0098,2.0097,2.0097,2.0096,0,1.9427,1.9456,1.9524,1.9596,1.9655,1.963,1.9686,1.9738,1.9818,1.9867,1.993,2.0026,2.0104,2.0139,2.0216,2.0268,2.0263,2.0289,2.0286,2.0294,2.0135,2.0108,2.0292,2.0292,2.0292,2.0292,2.0292,2.0292,1.9535,1.964,1.9649,1.9774,1.9803,1.989,1.9925,1.9971,2.001,2.0118,2.0182,2.0203,2.0247,2.0328,2.0399,2.0408,2.0438,2.0469,2.0474,2.0325,2.0305,2.0286,2.0261,2.0475,2.0475,2.0628,2.0629,2.063]},{"header":{"parameterUnit":"m.s-1","parameterCategory":1,"la1":30.2991,"la2":30.254,"lo1":-89.0895,"lo2":-89.0444,"dy":0.0017,"dx":0.0017,"nx":28,"ny":28,"refTime":"2023-08-11T03:00:00:Z","depth":0,"parameterNumber":3,"parameterNumberName":"V-component_of_WINDS"},"data":[0,0,0,0,0,0,0,0,0,0,0,0,0,0,0,0,0,0,0,0,0,0,0,0,0,0,0,0,0,0,0,0,0,0,0,0,0,0,0,0,0,0,0,0,0,0,0,0,0,0,0,0,0,0,0,0,0,0,5.94,5.9402,0,5.9535,5.9536,5.9538,5.9514,5.9511,5.9509,5.9507,5.9636,5.9641,5.9647,0,0,0,0,0,0,0,0,0,0,0,0,0,5.9113,5.9118,5.94,5.9402,5.9404,5.9534,5.9536,5.9538,5.9514,5.9511,5.9509,5.9506,5.9634,5.9641,5.9647,0,0,0,0,0,0,0,0,0,0,0,0,0,5.9241,5.912,5.94,5.9408,5.941,5.9534,5.9536,5.9539,5.9515,5.9511,5.9508,5.9505,5.9632,5.964,5.9648,5.9771,0,0,5.9674,5.9678,0,0,0,0,0,0,0,0,5.9234,5.9252,5.9405,5.9407,5.941,5.9504,5.9482,5.9616,5.9516,5.9475,5.9507,5.9503,5.9594,5.9606,5.9638,5.9777,5.9782,5.9675,5.968,5.9684,5.9686,0,0,0,0,0,0,0,5.9225,5.9246,5.9453,5.9407,5.941,5.9401,5.9415,5.9507,5.9552,5.9478,5.9477,5.9493,5.9595,5.963,5.9641,5.9784,5.9675,5.9682,5.9687,5.9691,6.0027,6.0031,0,0,0,0,0,0,5.9215,5.9239,5.9449,5.9457,5.9312,5.9409,5.9425,5.9477,5.9551,5.9559,5.9496,5.9492,5.9617,5.9631,5.9645,5.9793,5.9683,5.9691,5.9696,6.0024,6.0028,6.0032,0,0,0,0,0,0,5.9209,5.9234,5.9443,5.9348,5.9374,5.9418,5.9476,5.9482,5.9517,5.9565,5.9572,5.9525,5.9615,5.9634,5.974,5.9797,5.9695,5.9703,6.0019,6.0025,6.003,6.009,0,0,0,0,0,0,5.9201,5.9232,5.9282,5.9349,5.9379,5.9539,5.948,5.9487,5.9533,5.9528,5.9594,5.9601,5.9614,5.9728,5.9748,5.9807,5.9709,6.0014,6.0022,6.0028,6.0083,6.0097,6.0109,0,0,0,0,0,5.9191,5.9292,5.9284,5.931,5.9442,5.9542,5.9559,5.9574,5.9538,5.9586,5.9616,5.9599,5.9787,5.9739,5.9762,5.9824,6.001,6.0019,6.0028,6.0077,6.0094,6.0109,0,0,0,0,0,0,5.9227,5.9301,5.9294,5.942,5.9475,5.9538,5.96,5.9592,5.9657,5.965,5.9663,5.9678,5.9786,5.9815,5.9759,5.9945,5.9893,5.9907,5.9923,5.9939,5.9952,5.9943,5.9716,0,0,0,0,0,5.925,5.9329,5.9387,5.9493,5.9521,5.9556,5.96,5.9607,5.9664,5.9686,5.9725,5.9778,5.9849,5.9895,5.9963,6.0086,6.0099,6.014,6.0153,6.0163,6.0175,6.0241,6.026,6.0061,6.0061,6.0061,0,0,5.9298,5.9348,5.9396,5.9501,5.9545,5.9623,5.9576,5.966,5.9717,5.9698,5.9802,5.9831,5.9891,6.0006,6.0059,6.0034,6.0233,6.0175,6.0183,6.0189,6.0252,6.0271,6.0287,6.0067,6.0066,6.0065,0,0,5.9426,5.9472,5.9565,5.961,5.9678,5.97,5.9722,5.9786,5.9806,5.9911,5.9898,5.9963,6.0086,6.0129,6.0167,6.0308,6.0294,6.0329,6.0398,6.0461,6.0477,6.0491,6.0541,6.0559,6.0341,6.0341,6.0341,0,5.9476,5.9596,5.9612,5.9699,5.9744,5.9733,5.9825,5.9867,5.9952,5.9982,5.9953,6.0107,6.0146,6.027,6.0305,6.0336,6.0359,6.0323,6.0474,6.0488,6.0501,6.0549,6.0568,6.0345,6.0344,6.0344,6.0344,0,5.9654,5.9737,5.9803,5.9889,5.9942,6.003,6.0057,6.0107,6.0108,6.0133,6.0237,6.0284,6.0361,6.0391,6.0392,6.0515,6.0497,6.0471,6.042,6.0524,6.0569,6.0587,6.0351,6.0349,6.0348,6.0347,0,0,5.981,5.9904,5.9928,5.9966,6.0039,6.0102,6.0187,6.0266,6.0308,6.0366,6.0437,6.054,6.0517,6.056,6.0565,6.0621,6.0729,6.0588,6.0589,6.0612,6.0865,6.0885,6.0906,6.0719,6.0723,6.0726,6.086,0,5.9945,6.0102,6.0118,6.0256,6.0332,6.0321,6.0395,6.0446,6.047,6.0535,6.0559,6.0633,6.0596,6.0622,6.0676,6.0704,6.078,6.0694,6.0783,6.0787,6.077,6.093,6.0951,6.1077,6.0878,6.0881,6.0883,0,6.0124,6.019,6.0337,6.0399,6.0431,6.0498,6.057,6.0633,6.0689,6.0702,6.0749,6.0747,6.0832,6.0776,6.0893,6.0834,6.0871,6.089,6.0895,6.0904,6.0842,6.0944,6.1117,6.1136,6.0911,6.0909,6.0907,0,6.0223,6.0348,6.0452,6.0485,6.0559,6.0607,6.0639,6.0692,6.0737,6.0798,6.0827,6.0896,6.0934,6.0986,6.1001,6.0959,6.1116,6.1062,6.1127,6.1127,6.1162,6.116,6.1344,6.1185,6.1184,6.1184,6.1184,0,6.0372,6.0462,6.0498,6.0562,6.0662,6.0677,6.0774,6.0803,6.085,6.0917,6.0909,6.0972,6.0987,6.1052,6.1063,6.1157,6.1174,6.1185,6.1187,6.1187,6.1185,6.1211,6.1203,6.1189,6.1188,6.1187,6.1186,0,6.0501,6.0529,6.0641,6.0702,6.0719,6.079,6.0841,6.09,6.0922,6.1007,6.1028,6.1061,6.1136,6.1156,6.1245,6.1252,6.1363,6.1357,6.1346,6.1346,6.141,6.1404,6.1619,6.1647,6.1468,6.147,6.1471,0,6.0595,6.0665,6.0733,6.0779,6.0815,6.0888,6.0934,6.095,6.0998,6.1066,6.1117,6.1192,6.1253,6.1372,6.1403,6.147,6.1465,6.1535,6.1475,6.1472,6.1466,6.1462,6.1469,6.1547,6.1549,6.1551,6.1552,0,6.0759,6.0769,6.0838,6.0912,6.0968,6.1026,6.1081,6.1118,6.1141,6.1195,6.1273,6.132,6.1411,6.1485,6.1552,6.1581,6.157,6.157,6.1589,6.159,6.1581,6.1586,6.1378,6.1566,6.1564,6.1563,6.1563,6.1562,6.0873,6.0934,6.0992,6.1069,6.1112,6.1164,6.1223,6.1253,6.132,6.1398,6.1401,6.1486,6.1536,6.1627,6.166,6.1724,6.1702,6.1729,6.1736,6.1743,6.1749,6.157,6.1736,6.1735,6.1735,6.1735,6.1734,0,6.1037,6.1074,6.1144,6.1223,6.1282,6.1268,6.1328,6.1377,6.1453,6.1503,6.1563,6.1651,6.1722,6.1757,6.1826,6.187,6.1867,6.1888,6.1885,6.1892,6.1764,6.1741,6.189,6.189,6.189,6.189,6.189,6.189,6.1129,6.1232,6.1248,6.1371,6.1405,6.1491,6.1526,6.1572,6.1612,6.1712,6.1772,6.1795,6.1838,6.191,6.1973,6.1981,6.2007,6.2031,6.2037,6.1917,6.1901,6.1886,6.1865,6.2037,6.2037,6.2159,6.216,6.2161]}]]